This is the latest recevied weather packets stored in our database for station/object IZ8FMH-11. If no packets are shown the sender has not sent any weather packets the latest 10 day(s).
| Time | Temp. | Humidity | Pressure | Rain* | Wind** | Luminosity | Snow |
|---|---|---|---|---|---|---|---|
| 1788480304 | 27.78° C | 32% | 1014.4 hPa | - | - | - | - |
| 1788478504 | 27.78° C | 35% | 1014.4 hPa | - | - | - | - |
| 1788476705 | 27.78° C | 37% | 1014.3 hPa | - | - | - | - |
| 1788474904 | 28.33° C | 39% | 1014.4 hPa | - | - | - | - |
| 1788473104 | 28.33° C | 41% | 1014.4 hPa | - | - | - | - |
| 1788471304 | 28.33° C | 44% | 1014.4 hPa | - | - | - | - |
| 1788469504 | 28.89° C | 45% | 1014.3 hPa | - | - | - | - |
| 1788467703 | 28.89° C | 44% | 1013.9 hPa | - | - | - | - |
| 1788465903 | 28.89° C | 43% | 1014.1 hPa | - | - | - | - |
| 1788464103 | 29.44° C | 42% | 1014.2 hPa | - | - | - | - |
| 1788462303 | 29.44° C | 44% | 1014.1 hPa | - | - | - | - |
| 1788460503 | 30° C | 44% | 1013.6 hPa | - | - | - | - |
| 1788458703 | 30° C | 51% | 1013 hPa | - | - | - | - |
| 1788456903 | 30° C | 58% | 1013 hPa | - | - | - | - |
| 1788455103 | 30.56° C | 58% | 1012.9 hPa | - | - | - | - |
| 1788453303 | 30.56° C | 54% | 1012.9 hPa | - | - | - | - |
| 1788451503 | 30.56° C | 57% | 1013.1 hPa | - | - | - | - |
| 1788449703 | 30° C | 58% | 1012.8 hPa | - | - | - | - |
| 1788447902 | 30.56° C | 58% | 1012.7 hPa | - | - | - | - |
| 1788446102 | 30.56° C | 58% | 1012.5 hPa | - | - | - | - |
| 1788444302 | 30.56° C | 57% | 1012.6 hPa | - | - | - | - |
| 1788442502 | 30.56° C | 59% | 1012.6 hPa | - | - | - | - |
| 1788440702 | 30° C | 62% | 1012.9 hPa | - | - | - | - |
| 1788438902 | 30° C | 61% | 1013 hPa | - | - | - | - |
| 1788437103 | 30° C | 61% | 1013.2 hPa | - | - | - | - |
* Rain since midnight (hover to see other rain measurements)
** Current wind speed in m/s (hover to see current wind gust speed)